SNG6679 ZYHB-ZBTJ

Flight info

Callsign SNG6679
Flight time 1h 54m
Altitude 34100
Route DUK19D DUKIR W655 NIMEM W205 NULRA A588 LEMOT/K0846S1100 A588 VENOS W573 DBL W5 EKULI W576 OVTUP W55 DUMAP DUMAP3H
Aircraft A320/M-SDE3FGHIRWY/LB1

Departure

Time 2026-04-26 06:26
Airport Harbin Taiping International Airport (ZYHB)

Arrival

Time 2026-04-26 08:21
Airport Tianjin Binhai International Airport (ZBTJ)
Time Latitude Longitude Altitude Speed Heading
2026-04-26 05:54 45.61849 126.23496 464 ft 0 kts 322°
2026-04-26 06:14 45.61836 126.23510 464 ft 3 kts 322°
2026-04-26 06:14 45.61823 126.23526 461 ft 3 kts 322°
2026-04-26 06:15 45.61809 126.23541 460 ft 2 kts 322°
2026-04-26 06:15 45.61797 126.23557 462 ft 2 kts 352°
2026-04-26 06:15 45.61781 126.23552 461 ft 2 kts 40°
2026-04-26 06:15 45.61776 126.23546 464 ft 0 kts 40°
2026-04-26 06:18 45.61778 126.23549 461 ft 1 kts 40°
2026-04-26 06:18 45.61782 126.23553 461 ft 2 kts 40°
2026-04-26 06:19 45.61783 126.23555 462 ft 0 kts 40°
2026-04-26 06:19 45.61784 126.23555 462 ft 0 kts 40°
2026-04-26 06:19 45.61782 126.23563 462 ft 2 kts 98°
2026-04-26 06:19 45.61760 126.23600 462 ft 10 kts 126°
2026-04-26 06:20 45.61714 126.23683 463 ft 11 kts 130°
2026-04-26 06:20 45.61686 126.23787 463 ft 12 kts 68°
2026-04-26 06:20 45.61758 126.23877 463 ft 18 kts 39°
2026-04-26 06:20 45.61869 126.24006 460 ft 22 kts 40°
2026-04-26 06:21 45.61995 126.24152 461 ft 27 kts 39°
2026-04-26 06:21 45.62097 126.24299 460 ft 16 kts 84°
2026-04-26 06:21 45.62104 126.24431 459 ft 15 kts 44°
2026-04-26 06:21 45.62194 126.24535 459 ft 19 kts 39°
2026-04-26 06:22 45.62318 126.24679 456 ft 27 kts 39°
2026-04-26 06:22 45.62479 126.24869 456 ft 31 kts 39°
2026-04-26 06:22 45.62650 126.25069 455 ft 32 kts 39°
2026-04-26 06:22 45.62828 126.25277 452 ft 34 kts 39°
2026-04-26 06:23 45.63009 126.25489 452 ft 33 kts 39°
2026-04-26 06:23 45.63186 126.25696 451 ft 34 kts 39°
2026-04-26 06:23 45.63370 126.25914 450 ft 35 kts 39°
2026-04-26 06:23 45.63541 126.26113 449 ft 22 kts 39°
2026-04-26 06:24 45.63581 126.26255 449 ft 14 kts 119°
2026-04-26 06:24 45.63568 126.26274 449 ft 0 kts 143°
2026-04-26 06:24 45.63566 126.26274 449 ft 1 kts 147°
2026-04-26 06:24 45.63539 126.26288 449 ft 11 kts 163°
2026-04-26 06:25 45.63456 126.26289 449 ft 12 kts 187°
2026-04-26 06:25 45.63378 126.26232 449 ft 7 kts 219°
2026-04-26 06:25 45.63375 126.26228 449 ft 1 kts 219°
2026-04-26 06:25 45.63266 126.26100 449 ft 53 kts 219°
2026-04-26 06:26 45.62816 126.25572 454 ft 111 kts 219°
2026-04-26 06:26 45.62093 126.24724 458 ft 155 kts 219°
2026-04-26 06:26 45.61216 126.23739 917 ft 158 kts 221°
2026-04-26 06:26 45.60321 126.22786 1475 ft 164 kts 223°
2026-04-26 06:27 45.59393 126.21795 2037 ft 168 kts 224°
2026-04-26 06:27 45.58469 126.20724 2442 ft 180 kts 226°
2026-04-26 06:27 45.57461 126.19486 2705 ft 202 kts 225°
2026-04-26 06:27 45.56335 126.18100 2911 ft 226 kts 225°
2026-04-26 06:28 45.55093 126.16588 3198 ft 250 kts 224°
2026-04-26 06:28 45.53731 126.14959 3898 ft 260 kts 223°
2026-04-26 06:28 45.52326 126.13306 4759 ft 263 kts 224°
2026-04-26 06:28 45.50900 126.11641 5629 ft 266 kts 224°
2026-04-26 06:29 45.49469 126.09938 6463 ft 270 kts 224°
2026-04-26 06:29 45.48032 126.08203 7269 ft 273 kts 224°
2026-04-26 06:29 45.46580 126.06442 8086 ft 275 kts 224°
2026-04-26 06:29 45.45121 126.04665 8917 ft 277 kts 224°
2026-04-26 06:30 45.43628 126.02898 9736 ft 280 kts 223°
2026-04-26 06:30 45.42085 126.01142 10293 ft 292 kts 222°
2026-04-26 06:30 45.40433 125.99282 10479 ft 315 kts 221°
2026-04-26 06:30 45.38572 125.97424 10614 ft 339 kts 213°
2026-04-26 06:31 45.36357 125.95976 10775 ft 362 kts 201°
2026-04-26 06:31 45.33872 125.95133 11206 ft 374 kts 190°
2026-04-26 06:31 45.31257 125.94940 11865 ft 378 kts 183°
2026-04-26 06:31 45.28618 125.94918 12469 ft 381 kts 183°
2026-04-26 06:32 45.26013 125.94886 13042 ft 385 kts 183°
2026-04-26 06:32 45.23320 125.94850 13632 ft 389 kts 183°
2026-04-26 06:32 45.20596 125.94815 14165 ft 392 kts 183°
2026-04-26 06:32 45.17860 125.94783 14692 ft 395 kts 183°
2026-04-26 06:33 45.15151 125.94757 15205 ft 398 kts 183°
2026-04-26 06:33 45.12324 125.94732 15728 ft 400 kts 184°
2026-04-26 06:33 45.09528 125.94709 16234 ft 403 kts 184°
2026-04-26 06:33 45.06716 125.94687 16766 ft 406 kts 184°
2026-04-26 06:34 45.03886 125.94663 17297 ft 409 kts 184°
2026-04-26 06:34 45.01023 125.94638 17816 ft 411 kts 185°
2026-04-26 06:34 44.98159 125.94614 18375 ft 413 kts 185°
2026-04-26 06:34 44.95317 125.94587 18852 ft 415 kts 185°
2026-04-26 06:35 44.92423 125.94557 19308 ft 417 kts 185°
2026-04-26 06:35 44.89467 125.94521 19771 ft 420 kts 185°
2026-04-26 06:35 44.86579 125.94487 20197 ft 423 kts 185°
2026-04-26 06:35 44.83618 125.94459 20601 ft 427 kts 185°
2026-04-26 06:36 44.80639 125.94434 21006 ft 430 kts 185°
2026-04-26 06:36 44.77636 125.94408 21403 ft 432 kts 185°
2026-04-26 06:36 44.74624 125.94328 21776 ft 433 kts 189°
2026-04-26 06:36 44.71644 125.93794 22151 ft 432 kts 194°
2026-04-26 06:37 44.68666 125.93136 22529 ft 434 kts 194°
2026-04-26 06:37 44.65670 125.92472 22899 ft 437 kts 194°
2026-04-26 06:37 44.62668 125.91809 23213 ft 441 kts 194°
2026-04-26 06:37 44.59617 125.91139 23535 ft 444 kts 194°
2026-04-26 06:38 44.56565 125.90472 23820 ft 447 kts 194°
2026-04-26 06:38 44.53471 125.89800 24123 ft 449 kts 194°
2026-04-26 06:38 44.50412 125.89134 24423 ft 451 kts 194°
2026-04-26 06:38 44.47299 125.88452 24722 ft 453 kts 194°
2026-04-26 06:39 44.44177 125.87768 25079 ft 454 kts 194°
2026-04-26 06:39 44.41059 125.87092 25463 ft 454 kts 194°
2026-04-26 06:39 44.37939 125.86420 25851 ft 454 kts 194°
2026-04-26 06:39 44.34815 125.85744 26279 ft 454 kts 194°
2026-04-26 06:40 44.32753 125.85297 26576 ft 453 kts 194°
2026-04-26 06:40 44.28594 125.84395 27201 ft 451 kts 194°
2026-04-26 06:40 44.26539 125.83948 27518 ft 450 kts 194°
2026-04-26 06:40 44.23454 125.83276 27987 ft 449 kts 194°
2026-04-26 06:41 44.20362 125.82604 28417 ft 449 kts 194°
2026-04-26 06:41 44.17280 125.81936 28885 ft 448 kts 194°
2026-04-26 06:41 44.14197 125.81370 29337 ft 450 kts 188°
2026-04-26 06:41 44.09986 125.81562 29951 ft 456 kts 176°
2026-04-26 06:42 44.07917 125.82113 30220 ft 459 kts 169°
2026-04-26 06:42 44.04870 125.83507 30614 ft 462 kts 162°
2026-04-26 06:42 44.00905 125.85665 31136 ft 461 kts 163°
2026-04-26 06:42 43.98873 125.86689 31395 ft 458 kts 168°
2026-04-26 06:43 43.95790 125.87666 31772 ft 451 kts 177°
2026-04-26 06:43 43.92689 125.87993 32172 ft 444 kts 186°
2026-04-26 06:43 43.89632 125.87715 32578 ft 437 kts 194°
2026-04-26 06:43 43.86668 125.87095 32975 ft 435 kts 194°
2026-04-26 06:44 43.83638 125.86465 33404 ft 435 kts 194°
2026-04-26 06:44 43.80652 125.85851 33820 ft 433 kts 195°
2026-04-26 06:44 43.77775 125.84959 34019 ft 427 kts 203°
2026-04-26 06:45 43.72348 125.81618 34060 ft 432 kts 213°
2026-04-26 06:45 43.66973 125.77743 34057 ft 437 kts 213°
2026-04-26 06:46 43.61564 125.73889 34063 ft 438 kts 213°
2026-04-26 06:46 43.56145 125.70041 34048 ft 437 kts 213°
2026-04-26 06:47 43.50752 125.66211 34057 ft 435 kts 213°
2026-04-26 06:47 43.45368 125.62390 34061 ft 435 kts 213°
2026-04-26 06:48 43.40022 125.58614 34071 ft 435 kts 212°
2026-04-26 06:48 43.34627 125.54809 34069 ft 435 kts 213°
2026-04-26 06:49 43.29238 125.51013 34063 ft 435 kts 212°
2026-04-26 06:49 43.23852 125.47224 34066 ft 435 kts 212°
2026-04-26 06:50 43.18458 125.43440 34060 ft 435 kts 213°
2026-04-26 06:50 43.13072 125.39658 34072 ft 435 kts 213°
2026-04-26 06:51 43.07677 125.35877 34068 ft 435 kts 213°
2026-04-26 06:51 42.99587 125.30243 34065 ft 434 kts 213°
2026-04-26 06:52 42.94206 125.26505 34074 ft 433 kts 213°
2026-04-26 06:52 42.88871 125.22799 34086 ft 432 kts 213°
2026-04-26 06:53 42.83517 125.19090 34075 ft 431 kts 213°
2026-04-26 06:53 42.78183 125.15375 34083 ft 430 kts 213°
2026-04-26 06:54 42.72874 125.11636 34077 ft 429 kts 213°
2026-04-26 06:54 42.67568 125.07902 34063 ft 429 kts 214°
2026-04-26 06:55 42.62261 125.04187 34080 ft 428 kts 214°
2026-04-26 06:55 42.56969 125.00493 34078 ft 428 kts 213°
2026-04-26 06:56 42.51678 124.96807 34055 ft 427 kts 214°
2026-04-26 06:56 42.46391 124.93129 34067 ft 427 kts 214°
2026-04-26 06:57 42.41106 124.89460 34068 ft 427 kts 214°
2026-04-26 06:57 42.35814 124.85802 34053 ft 427 kts 214°
2026-04-26 06:58 42.30542 124.82155 34079 ft 425 kts 214°
2026-04-26 06:58 42.25299 124.78532 34092 ft 423 kts 214°
2026-04-26 06:59 42.20095 124.74952 34091 ft 422 kts 214°
2026-04-26 06:59 42.14875 124.71371 34079 ft 420 kts 214°
2026-04-26 07:00 42.09665 124.67793 34080 ft 420 kts 214°
2026-04-26 07:00 42.04471 124.64228 34086 ft 419 kts 214°
2026-04-26 07:01 41.99281 124.60676 34063 ft 419 kts 215°
2026-04-26 07:01 41.94155 124.57010 34069 ft 416 kts 217°
2026-04-26 07:02 41.89156 124.53129 34073 ft 414 kts 218°
2026-04-26 07:02 41.84168 124.49232 34043 ft 415 kts 218°
2026-04-26 07:03 41.79162 124.45393 34061 ft 415 kts 217°
2026-04-26 07:03 41.74137 124.41586 34051 ft 414 kts 217°
2026-04-26 07:04 41.69123 124.37791 34063 ft 414 kts 217°
2026-04-26 07:04 41.64115 124.34004 34083 ft 413 kts 217°
2026-04-26 07:05 41.59105 124.30217 34082 ft 413 kts 217°
2026-04-26 07:05 41.54135 124.26472 34079 ft 413 kts 217°
2026-04-26 07:06 41.49131 124.22701 34067 ft 413 kts 218°
2026-04-26 07:06 41.44125 124.18933 34066 ft 413 kts 217°
2026-04-26 07:07 41.39115 124.15180 34068 ft 413 kts 217°
2026-04-26 07:07 41.34067 124.11497 34031 ft 414 kts 217°
2026-04-26 07:08 41.28999 124.07855 34040 ft 414 kts 217°
2026-04-26 07:08 41.23929 124.04216 34049 ft 414 kts 217°
2026-04-26 07:09 41.18867 124.00556 34038 ft 415 kts 217°
2026-04-26 07:09 41.13824 123.96918 34043 ft 415 kts 217°
2026-04-26 07:11 41.01142 123.87813 34041 ft 415 kts 216°
2026-04-26 07:11 40.96055 123.84172 34051 ft 416 kts 216°
2026-04-26 07:12 40.90972 123.80538 34050 ft 415 kts 216°
2026-04-26 07:12 40.85888 123.76907 34040 ft 415 kts 216°
2026-04-26 07:13 40.80816 123.73280 34036 ft 414 kts 217°
2026-04-26 07:13 40.75785 123.69577 34045 ft 414 kts 217°
2026-04-26 07:14 40.70764 123.65849 34033 ft 414 kts 217°
2026-04-26 07:14 40.65735 123.62145 34036 ft 414 kts 217°
2026-04-26 07:15 40.60703 123.58465 34040 ft 414 kts 217°
2026-04-26 07:15 40.55668 123.54793 34030 ft 414 kts 217°
2026-04-26 07:16 40.50631 123.51119 34030 ft 414 kts 217°
2026-04-26 07:16 40.45600 123.47446 34027 ft 414 kts 217°
2026-04-26 07:17 40.40561 123.43776 34016 ft 414 kts 217°
2026-04-26 07:17 40.35523 123.40115 34022 ft 414 kts 217°
2026-04-26 07:18 40.30483 123.36457 34025 ft 414 kts 217°
2026-04-26 07:18 40.25467 123.32823 34006 ft 415 kts 217°
2026-04-26 07:19 40.20413 123.29173 34016 ft 415 kts 217°
2026-04-26 07:19 40.15364 123.25531 34021 ft 415 kts 217°
2026-04-26 07:20 40.10310 123.21889 34034 ft 415 kts 217°
2026-04-26 07:20 40.05253 123.18247 34033 ft 414 kts 216°
2026-04-26 07:21 40.00211 123.14600 34031 ft 414 kts 217°
2026-04-26 07:21 39.95179 123.10931 34025 ft 415 kts 217°
2026-04-26 07:22 39.90143 123.07259 34027 ft 415 kts 217°
2026-04-26 07:22 39.85100 123.03600 34036 ft 415 kts 217°
2026-04-26 07:23 39.80058 122.99946 34037 ft 415 kts 217°
2026-04-26 07:23 39.75011 122.96299 34013 ft 415 kts 216°
2026-04-26 07:24 39.69958 122.92661 34018 ft 415 kts 216°
2026-04-26 07:24 39.64900 122.89021 34025 ft 416 kts 216°
2026-04-26 07:25 39.59847 122.85386 34020 ft 416 kts 216°
2026-04-26 07:25 39.54790 122.81749 34024 ft 416 kts 216°
2026-04-26 07:26 39.49727 122.78122 34034 ft 416 kts 216°
2026-04-26 07:26 39.44657 122.74495 34010 ft 417 kts 216°
2026-04-26 07:27 39.39608 122.70892 34012 ft 418 kts 216°
2026-04-26 07:27 39.34511 122.67256 34017 ft 418 kts 216°
2026-04-26 07:28 39.29415 122.63623 34005 ft 419 kts 216°
2026-04-26 07:28 39.24333 122.59935 34016 ft 418 kts 218°
2026-04-26 07:29 39.19399 122.55986 34023 ft 417 kts 219°
2026-04-26 07:29 39.15342 122.52646 33997 ft 417 kts 219°
2026-04-26 07:30 39.09587 122.47988 34003 ft 419 kts 218°
2026-04-26 07:30 39.05465 122.44708 34010 ft 419 kts 218°
2026-04-26 07:31 39.00491 122.40773 34010 ft 420 kts 218°
2026-04-26 07:31 38.95668 122.36623 34012 ft 411 kts 228°
2026-04-26 07:31 38.93768 122.33930 34020 ft 403 kts 239°
2026-04-26 07:32 38.92363 122.30854 34017 ft 397 kts 250°
2026-04-26 07:32 38.91110 122.24049 34022 ft 392 kts 269°
2026-04-26 07:33 38.91531 122.17082 34015 ft 392 kts 275°
2026-04-26 07:33 38.92080 122.10148 33997 ft 393 kts 275°
2026-04-26 07:34 38.92631 122.03157 34006 ft 394 kts 275°
2026-04-26 07:34 38.93187 121.96158 34009 ft 395 kts 275°
2026-04-26 07:35 38.93729 121.89138 34014 ft 395 kts 275°
2026-04-26 07:35 38.94266 121.82109 34012 ft 395 kts 275°
2026-04-26 07:36 38.94803 121.75087 34022 ft 395 kts 275°
2026-04-26 07:36 38.95335 121.68066 34023 ft 395 kts 275°
2026-04-26 07:37 38.95158 121.61064 34023 ft 396 kts 257°
2026-04-26 07:37 38.94193 121.57740 34021 ft 400 kts 246°
2026-04-26 07:37 38.92653 121.54746 34018 ft 406 kts 234°
2026-04-26 07:37 38.90577 121.52241 34018 ft 415 kts 221°
2026-04-26 07:38 38.88173 121.50161 33998 ft 418 kts 220°
2026-04-26 07:38 38.83317 121.46043 34005 ft 419 kts 220°
2026-04-26 07:39 38.78447 121.41920 34009 ft 419 kts 219°
2026-04-26 07:39 38.73610 121.37825 34017 ft 420 kts 220°
2026-04-26 07:40 38.68745 121.33700 34026 ft 420 kts 220°
2026-04-26 07:40 38.63868 121.29574 34031 ft 420 kts 220°
2026-04-26 07:41 38.59304 121.25056 34029 ft 409 kts 234°
2026-04-26 07:41 38.57664 121.22141 34016 ft 402 kts 245°
2026-04-26 07:41 38.56565 121.18882 34016 ft 397 kts 256°
2026-04-26 07:42 38.56058 121.11955 34020 ft 394 kts 276°
2026-04-26 07:42 38.57146 121.05092 34023 ft 395 kts 281°
2026-04-26 07:43 38.58285 120.98212 34022 ft 395 kts 280°
2026-04-26 07:43 38.59418 120.91332 34023 ft 396 kts 280°
2026-04-26 07:44 38.60550 120.84434 34022 ft 397 kts 280°
2026-04-26 07:44 38.61679 120.77528 34025 ft 397 kts 280°
2026-04-26 07:45 38.62806 120.70599 34031 ft 398 kts 280°
2026-04-26 07:45 38.63924 120.63728 34033 ft 398 kts 280°
2026-04-26 07:46 38.65052 120.56797 34038 ft 398 kts 280°
2026-04-26 07:46 38.66191 120.49874 34042 ft 398 kts 280°
2026-04-26 07:47 38.67343 120.42942 34041 ft 398 kts 280°
2026-04-26 07:47 38.68484 120.36012 34036 ft 398 kts 281°
2026-04-26 07:48 38.69561 120.29066 34032 ft 398 kts 275°
2026-04-26 07:48 38.69528 120.25525 34033 ft 398 kts 262°
2026-04-26 07:48 38.68823 120.22097 34033 ft 401 kts 250°
2026-04-26 07:48 38.67481 120.18956 34015 ft 406 kts 237°
2026-04-26 07:49 38.65547 120.16283 34015 ft 414 kts 224°
2026-04-26 07:49 38.60680 120.12170 34017 ft 421 kts 218°
2026-04-26 07:50 38.53231 120.06153 34019 ft 424 kts 218°
2026-04-26 07:50 38.48261 120.02133 34027 ft 428 kts 218°
2026-04-26 07:51 38.43328 119.97895 34024 ft 423 kts 225°
2026-04-26 07:51 38.39289 119.92528 34028 ft 419 kts 232°
2026-04-26 07:52 38.35381 119.87033 34011 ft 420 kts 233°
2026-04-26 07:52 38.31430 119.81528 34009 ft 421 kts 232°
2026-04-26 07:53 38.27476 119.76020 34016 ft 422 kts 232°
2026-04-26 07:53 38.23513 119.70499 34017 ft 423 kts 232°
2026-04-26 07:54 38.19544 119.64974 34003 ft 423 kts 233°
2026-04-26 07:54 38.15715 119.59344 34007 ft 416 kts 242°
2026-04-26 07:55 38.14385 119.56121 34014 ft 409 kts 253°
2026-04-26 07:55 38.13621 119.52676 34025 ft 403 kts 264°
2026-04-26 07:55 38.13783 119.45702 34017 ft 398 kts 284°
2026-04-26 07:56 38.15726 119.39116 34018 ft 399 kts 291°
2026-04-26 07:56 38.17851 119.32599 34017 ft 400 kts 291°
2026-04-26 07:57 38.19966 119.26062 34027 ft 400 kts 291°
2026-04-26 07:57 38.22082 119.19526 34030 ft 400 kts 291°
2026-04-26 07:58 38.24195 119.12993 34036 ft 399 kts 291°
2026-04-26 07:58 38.26299 119.06451 34037 ft 399 kts 291°
2026-04-26 07:59 38.28400 118.99903 34036 ft 399 kts 291°
2026-04-26 07:59 38.30498 118.93367 34045 ft 399 kts 291°
2026-04-26 08:00 38.31544 118.90103 33775 ft 397 kts 291°
2026-04-26 08:00 38.32583 118.86854 33234 ft 396 kts 291°
2026-04-26 08:00 38.33610 118.83642 32705 ft 398 kts 291°
2026-04-26 08:00 38.34656 118.80370 32180 ft 401 kts 291°
2026-04-26 08:01 38.35709 118.77065 31668 ft 404 kts 291°
2026-04-26 08:01 38.36766 118.73740 31157 ft 407 kts 291°
2026-04-26 08:01 38.37833 118.70388 30667 ft 410 kts 291°
2026-04-26 08:01 38.38914 118.67004 30179 ft 413 kts 291°
2026-04-26 08:02 38.40001 118.63601 29651 ft 415 kts 291°
2026-04-26 08:02 38.41092 118.60185 29088 ft 417 kts 291°
2026-04-26 08:02 38.42186 118.56754 28539 ft 418 kts 291°
2026-04-26 08:02 38.43282 118.53312 28002 ft 420 kts 291°
2026-04-26 08:03 38.44382 118.49855 27462 ft 421 kts 291°
2026-04-26 08:03 38.45487 118.46382 26947 ft 422 kts 291°
2026-04-26 08:03 38.46590 118.42906 26486 ft 424 kts 291°
2026-04-26 08:03 38.47695 118.39415 26034 ft 425 kts 291°
2026-04-26 08:04 38.48801 118.35912 25599 ft 426 kts 290°
2026-04-26 08:04 38.49906 118.32397 25163 ft 428 kts 290°
2026-04-26 08:04 38.51015 118.28866 24728 ft 429 kts 290°
2026-04-26 08:04 38.52125 118.25323 24300 ft 430 kts 290°
2026-04-26 08:05 38.53239 118.21773 23880 ft 432 kts 290°
2026-04-26 08:05 38.54356 118.18218 23457 ft 430 kts 290°
2026-04-26 08:05 38.55466 118.14679 22961 ft 429 kts 290°
2026-04-26 08:05 38.56569 118.11151 22474 ft 427 kts 291°
2026-04-26 08:06 38.57668 118.07633 21996 ft 426 kts 291°
2026-04-26 08:06 38.58763 118.04120 21523 ft 425 kts 291°
2026-04-26 08:06 38.59845 118.00609 21053 ft 424 kts 290°
2026-04-26 08:06 38.60869 117.97132 20606 ft 423 kts 290°
2026-04-26 08:07 38.61874 117.93600 20157 ft 422 kts 290°
2026-04-26 08:07 38.62866 117.90070 19710 ft 421 kts 290°
2026-04-26 08:07 38.63853 117.86543 19275 ft 419 kts 290°
2026-04-26 08:07 38.64816 117.83033 18845 ft 418 kts 290°
2026-04-26 08:08 38.65765 117.79532 18416 ft 416 kts 290°
2026-04-26 08:08 38.66702 117.76045 17953 ft 414 kts 290°
2026-04-26 08:08 38.67636 117.72571 17476 ft 412 kts 289°
2026-04-26 08:08 38.68569 117.69113 17005 ft 410 kts 289°
2026-04-26 08:09 38.69498 117.65681 16541 ft 407 kts 289°
2026-04-26 08:09 38.70421 117.62272 16083 ft 403 kts 289°
2026-04-26 08:09 38.71334 117.58889 15627 ft 401 kts 289°
2026-04-26 08:09 38.72238 117.55528 15182 ft 400 kts 289°
2026-04-26 08:10 38.73143 117.52163 14745 ft 397 kts 289°
2026-04-26 08:10 38.74298 117.48974 14310 ft 396 kts 300°
2026-04-26 08:10 38.75933 117.46152 13871 ft 395 kts 311°
2026-04-26 08:10 38.77988 117.43807 13408 ft 398 kts 322°
2026-04-26 08:11 38.80360 117.42044 12941 ft 391 kts 333°
2026-04-26 08:11 38.82793 117.40587 12472 ft 380 kts 333°
2026-04-26 08:11 38.85159 117.39165 12023 ft 371 kts 333°
2026-04-26 08:11 38.87461 117.37774 11574 ft 361 kts 332°
2026-04-26 08:12 38.89670 117.36415 11134 ft 353 kts 332°
2026-04-26 08:12 38.91858 117.35049 10692 ft 346 kts 332°
2026-04-26 08:12 38.93992 117.33707 10258 ft 339 kts 332°
2026-04-26 08:12 38.96087 117.32389 9831 ft 333 kts 332°
2026-04-26 08:13 38.98151 117.31094 9361 ft 328 kts 332°
2026-04-26 08:13 39.00186 117.29820 8888 ft 323 kts 332°
2026-04-26 08:13 39.02196 117.28550 8435 ft 320 kts 333°
2026-04-26 08:13 39.04178 117.27288 7984 ft 316 kts 333°
2026-04-26 08:14 39.06140 117.26036 7537 ft 314 kts 333°
2026-04-26 08:14 39.08091 117.24789 7101 ft 313 kts 334°
2026-04-26 08:14 39.10038 117.23545 6661 ft 312 kts 334°
2026-04-26 08:14 39.11973 117.22306 6230 ft 310 kts 335°
2026-04-26 08:15 39.13907 117.21066 5763 ft 310 kts 336°
2026-04-26 08:15 39.15835 117.19834 5314 ft 309 kts 336°
2026-04-26 08:15 39.17761 117.18601 4875 ft 308 kts 336°
2026-04-26 08:15 39.19651 117.17389 4409 ft 297 kts 337°
2026-04-26 08:16 39.21515 117.16461 3953 ft 279 kts 356°
2026-04-26 08:16 39.23342 117.16817 3499 ft 262 kts 30°
2026-04-26 08:16 39.24629 117.18352 3073 ft 248 kts 58°
2026-04-26 08:16 39.25379 117.20254 2858 ft 231 kts 72°
2026-04-26 08:17 39.25647 117.22178 2738 ft 212 kts 89°
2026-04-26 08:17 39.25482 117.24002 2630 ft 201 kts 103°
2026-04-26 08:17 39.24958 117.25640 2480 ft 196 kts 117°
2026-04-26 08:17 39.24129 117.27020 2277 ft 195 kts 132°
2026-04-26 08:18 39.23054 117.28069 2053 ft 191 kts 146°
2026-04-26 08:18 39.21903 117.28793 1808 ft 175 kts 148°
2026-04-26 08:18 39.20887 117.29414 1602 ft 150 kts 149°
2026-04-26 08:18 39.19997 117.29964 1393 ft 138 kts 150°
2026-04-26 08:19 39.19135 117.30497 1209 ft 136 kts 150°
2026-04-26 08:19 39.18295 117.31015 1032 ft 133 kts 150°
2026-04-26 08:19 39.17449 117.31537 825 ft 135 kts 150°
2026-04-26 08:19 39.16610 117.32049 626 ft 134 kts 150°
2026-04-26 08:20 39.15765 117.32572 452 ft 136 kts 153°
2026-04-26 08:20 39.14919 117.33094 294 ft 133 kts 152°
2026-04-26 08:20 39.14073 117.33605 147 ft 136 kts 152°
2026-04-26 08:20 39.13235 117.34126 28 ft 126 kts 154°
2026-04-26 08:21 39.12538 117.34555 20 ft 91 kts 154°
2026-04-26 08:21 39.12228 117.34744 21 ft 58 kts 154°
2026-04-26 08:21 39.11990 117.34892 21 ft 32 kts 154°
2026-04-26 08:21 39.11788 117.35117 21 ft 20 kts 127°
2026-04-26 08:22 39.11745 117.35205 20 ft 17 kts 105°
2026-04-26 08:22 39.11850 117.35306 19 ft 12 kts 66°
2026-04-26 08:22 39.11896 117.35334 19 ft 13 kts 349°
2026-04-26 08:22 39.12001 117.35271 19 ft 19 kts 334°
2026-04-26 08:23 39.12146 117.35182 20 ft 25 kts 334°
2026-04-26 08:23 39.12352 117.35053 19 ft 22 kts 334°
2026-04-26 08:23 39.12450 117.35018 19 ft 19 kts 360°
2026-04-26 08:23 39.12593 117.35033 20 ft 11 kts 15°
2026-04-26 08:24 39.12614 117.35084 19 ft 11 kts 94°
2026-04-26 08:24 39.12610 117.35158 19 ft 3 kts 93°